{"data":{"norad_id":67550,"epoch":"2026-09-19T11:01:37.121952Z","epoch_age_seconds":162159,"freshness":"FRESH","line1":"1 67550U 26014U   26262.45945743  .00015061  00000+0  46798-3 0  9994","line2":"2 67550  97.2856 147.9132 0001994  85.4207 274.7263 15.33439279 38488","mean_motion":15.33439279,"eccentricity":0.0001994,"inclination_deg":97.2856,"raan_deg":147.9132,"arg_perigee_deg":85.4207,"mean_anomaly_deg":274.7263,"bstar":0.00046798,"rev_number":3848,"period_min":93.906555004843,"perigee_km":464.19556298106,"apogee_km":466.92482942291,"semimajor_km":6843.697196202,"source":"CELESTRAK","updated_at":"2026-09-20T09:00:43.571324Z"}}